Flag for Russia Weather past 2 weeks in Sochi, Russia

Now
59 °F

Scattered clouds.


Feels Like: 60 °F
Forecast: 55 / 75 °F
Wind: 3 mph from East

Location: Adler


UV Index: 5 (Moderate)

Visibility: N/A


Pressure: 29.98 "Hg

Humidity: 72%

Dew point: 50 °F

Location of SochiLocation

Historic Weather in Sochi

°F

Sochi temperature yesterday

Maximum temperature yesterday: 59 °F (at 1:00 PM)
Minimum temperature yesterday: 52 °F (at 12:00 AM)
Average temperature yesterday: 54 °F

Past Weeks' High & Low Weather Summary

 TemperatureHumidityPressure
High72 °F (Apr 11, 6:00 PM)94% (Apr 9, 12:30 AM)30.21 "Hg (Apr 9, 12:30 AM)
Low32 °F (Apr 3, 4:00 AM)29% (Apr 11, 4:30 PM)29.83 "Hg (Apr 1, 8:00 PM)
Average53 °F70%30.00 "Hg
* Reported Apr 1 8:00 PM — Apr 16 8:30 PM, Sochi, Weather by CustomWeather, © 2014

Note: Actual official high and low records may vary slightly from our data, if they occured in-between our weather recording intervals... More about our weather records

Advertising

Historic Weather Conditions — Data for Previous 24 hours

 ConditionsComfort  
Time TempWeatherWind HumidityBarometerVisibility
8:30 PM
Apr 16
61 °FScattered clouds.No wind68%29.98 "HgN/A
8:00 PM63 °FScattered clouds.3 mph59%29.98 "HgN/A
7:30 PM64 °FPartly sunny.6 mph56%29.98 "HgN/A
7:00 PM66 °FPartly sunny.8 mph52%29.98 "HgN/A
6:30 PM66 °FPartly sunny.8 mph52%29.98 "HgN/A
6:00 PM68 °FPartly sunny.8 mph53%29.98 "HgN/A
5:00 PM66 °FScattered clouds.8 mph52%29.98 "HgN/A
4:30 PM66 °FScattered clouds.10 mph52%29.98 "HgN/A
4:00 PM66 °FPassing clouds.10 mph56%29.98 "HgN/A
3:30 PM64 °FPassing clouds.10 mph60%30.01 "HgN/A
3:00 PM64 °FPassing clouds.10 mph64%30.01 "HgN/A
2:30 PM64 °FPassing clouds.10 mph64%30.01 "HgN/A
2:00 PM64 °FPassing clouds.10 mph64%30.01 "HgN/A
1:30 PM63 °FPassing clouds.8 mph68%30.01 "HgN/A
1:00 PM63 °FFog.8 mph68%30.01 "HgN/A
12:30 PM63 °FFog.10 mph73%30.01 "HgN/A
12:00 PM61 °FFog.6 mph72%30.01 "HgN/A
11:30 AM57 °FFog.6 mph82%30.01 "HgN/A
11:00 AM61 °FPartly sunny.6 mph68%30.01 "HgN/A
10:30 AM61 °FPartly sunny.3 mph72%30.01 "HgN/A
10:00 AM59 °FPartly sunny.No wind82%30.01 "HgN/A
9:30 AM55 °FPartly sunny.No wind88%30.01 "HgN/A
9:00 AM55 °FPartly sunny.No wind88%30.01 "HgN/A
8:30 AM54 °FPartly sunny.3 mph88%30.01 "HgN/A
8:00 AM52 °FPartly sunny.3 mph94%29.98 "HgN/A
7:30 AM52 °FFog.6 mph88%29.98 "Hg6 mi
7:00 AM50 °FFog.6 mph94%29.98 "Hg0 mi
6:30 AM50 °FFog.3 mph94%29.98 "Hg2 mi
6:00 AM50 °FFog.3 mph94%29.98 "Hg2 mi
5:30 AM50 °FFog.No wind94%29.98 "Hg2 mi
5:00 AM50 °FFog.No wind94%29.98 "Hg2 mi
4:30 AM52 °FFog.1 mph88%29.98 "Hg2 mi
3:00 AM52 °FFog.No wind94%29.98 "Hg3 mi
2:30 AM54 °FMostly cloudy.No wind88%29.98 "Hg4 mi
2:00 AM52 °FFog.3 mph94%29.98 "Hg3 mi
1:30 AM52 °FMostly cloudy.1 mph94%29.98 "Hg4 mi
1:00 AM54 °FMostly cloudy.1 mph88%29.98 "Hg4 mi
12:30 AM54 °FMostly cloudy.No wind88%30.01 "Hg4 mi
12:00 AM54 °FMostly cloudy.No wind88%30.01 "HgN/A
11:30 PM
Apr 15
54 °FMostly cloudy.No wind88%30.01 "HgN/A
11:00 PM54 °FMostly cloudy.1 mph88%30.01 "HgN/A
10:30 PM54 °FLow clouds.1 mph88%29.98 "Hg6 mi
10:00 PM54 °FLow clouds.3 mph88%29.98 "HgN/A
9:30 PM54 °FOvercast.1 mph88%29.98 "HgN/A
9:00 PM54 °FOvercast.3 mph88%29.98 "HgN/A
Weather by CustomWeather, © 2014

See weather overview